Miles City, MT

5:08 AM MDT on June 29, 2017 (GMT -0600)
Wiley

Weather History for KMLS - September, 2013

Change the Weather History Date:

Sunday, September 22, 2013

  Actual Average Record
Temperature  
Mean Temperature 63 °F 57 °F  
Max Temperature 78 °F 71 °F 97 °F (1938)
Min Temperature 48 °F 43 °F 27 °F (1995)
Degree Days  
Heating Degree Days 2 9  
Month to date heating degree days 25 117  
Since 1 July heating degree days 25 151  
Cooling Degree Days 0 1  
Month to date cooling degree days 142 53  
Year to date cooling degree days 877 725  
Growing Degree Days 14 (Base 50)    
Moisture  
Dew Point 45 °F    
Average Humidity 55    
Maximum Humidity 77    
Minimum Humidity 32    
Precipitation  
Precipitation 0.00 in 0.03 in 0.93 in (2006)
Month to date precipitation 1.39 0.77  
Year to date precipitation 15.23 10.53  
Sea Level Pressure  
Sea Level Pressure 29.48 in    
Wind  
Wind Speed 6 mph (NNW)    
Max Wind Speed 16 mph    
Max Gust Speed 17 mph    
Visibility 10 miles    
Events      
T = Trace of Precipitation, MM = Missing Value Source: NWS Daily Summary

Daily Weather History Graph

Daily Weather History Graph

Search for Another Location

Airport or City:

Trip Planner

Search our weather history database for the weather conditions in past years. The results will help you decide how hot, cold, wet, or windy it might be!

Date:

Astronomy

Sep. 22, 2013 Rise Set
Actual Time 6:50 AM MDT 7:00 PM MDT
Civil Twilight 6:20 AM MDT 7:30 PM MDT
Nautical Twilight 5:45 AM MDT 8:05 PM MDT
Astronomical Twilight 5:08 AM MDT 8:42 PM MDT
Moon 8:37 PM MDT (9/22) 10:27 AM MDT (9/22)
Length of Visible Light 13h 09m
Length of Day
12h 09m
Waning Gibbous, 88% of the Moon is Illuminated
Sep 22
Waning Gibbous
Sep 26
Last Quarter
Oct 4
New
Oct 11
First Quarter
Oct 18
Full

Hourly Weather History & Observations

Time (MDT) Temp. Dew Point Humidity Pressure Visibility Wind Dir Wind Speed Gust Speed Precip Events Conditions
12:53 AM 63.0 °F 39.9 °F 43% 29.50 in 10.0 mi SE 5.8 mph - N/A   Clear
1:53 AM 61.0 °F 39.9 °F 46% 29.48 in 10.0 mi ESE 5.8 mph - N/A   Clear
2:53 AM 59.0 °F 41.0 °F 51% 29.47 in 10.0 mi NNE 5.8 mph - N/A   Clear
3:53 AM 54.0 °F 44.1 °F 69% 29.45 in 10.0 mi North 5.8 mph - N/A   Clear
4:53 AM 53.1 °F 44.1 °F 71% 29.46 in 10.0 mi Calm Calm - N/A   Clear
5:53 AM 51.1 °F 43.0 °F 74% 29.48 in 10.0 mi NW 5.8 mph - N/A   Clear
6:53 AM 52.0 °F 44.1 °F 74% 29.47 in 10.0 mi ENE 5.8 mph - N/A   Clear
7:53 AM 53.1 °F 46.0 °F 77% 29.48 in 10.0 mi Calm Calm - N/A   Clear
8:53 AM 57.0 °F 45.0 °F 64% 29.52 in 10.0 mi West 9.2 mph - N/A   Clear
9:53 AM 64.0 °F 45.0 °F 50% 29.50 in 10.0 mi NW 6.9 mph - N/A   Clear
10:53 AM 66.9 °F 44.1 °F 44% 29.48 in 10.0 mi NW 9.2 mph - N/A   Clear
11:53 AM 70.0 °F 45.0 °F 41% 29.47 in 10.0 mi NNW 11.5 mph - N/A   Clear
12:53 PM 75.0 °F 46.0 °F 36% 29.46 in 10.0 mi NE 3.5 mph - N/A   Clear
1:53 PM 75.0 °F 46.9 °F 37% 29.46 in 10.0 mi Variable 4.6 mph - N/A   Clear
2:53 PM 75.9 °F 46.9 °F 36% 29.45 in 10.0 mi Calm Calm - N/A   Clear
3:53 PM 75.9 °F 46.0 °F 35% 29.47 in 10.0 mi West 3.5 mph - N/A   Clear
4:53 PM 78.1 °F 46.9 °F 33% 29.46 in 10.0 mi Calm Calm - N/A   Clear
5:53 PM 73.0 °F 51.1 °F 46% 29.48 in 10.0 mi Calm Calm - N/A   Clear
6:53 PM 71.1 °F 51.1 °F 49% 29.47 in 10.0 mi Calm Calm - N/A   Clear
7:53 PM 66.0 °F 50.0 °F 56% 29.47 in 10.0 mi NW 8.1 mph - N/A   Clear
8:53 PM 66.0 °F 50.0 °F 56% 29.48 in 10.0 mi NNE 6.9 mph - N/A   Partly Cloudy
9:53 PM 64.0 °F 48.0 °F 56% 29.48 in 10.0 mi NW 11.5 mph - N/A   Partly Cloudy
10:53 PM 63.0 °F 43.0 °F 48% 29.49 in 10.0 mi NW 10.4 mph - N/A   Partly Cloudy
11:53 PM 61.0 °F 43.0 °F 52% 29.51 in 10.0 mi NNW 6.9 mph - N/A   Clear